Regional Weather Roundup
Issued by NWS

Home | Current Version | Previous Version | Graphics & Text | Print | Product List | Glossary On
Versions: 1 2 3 4 5 6 7 8 9 10 11 12 13 14 15 16 17 18 19 20 21 22 23 24 25 26 27 28 29 30 31 32 33 34 35 36 37 38 39 40 41 42 43 44 45 46 47 48 49 50
000
ASUS43 KMKX 302000
RWRWI

WISCONSIN REGIONAL WEATHER ROUNDUP
NATIONAL WEATHER SERVICE MILWAUKEE/SULLIVAN WI
300 PM CDT SAT JUL 30 2016

NOTE: "FAIR" INDICATES FEW OR NO CLOUDS BELOW 12,000 FEET WITH NO
SIGNIFICANT WEATHER AND/OR OBSTRUCTIONS TO VISIBILITY.

WIZ001-002-006>008-014>016-023>028-302100-
NORTHWEST WISCONSIN

CITY           SKY/WX    TMP DP  RH WIND       PRES   REMARKS
SUPERIOR ARPT  CLOUDY    69  62  78 NE7       30.04F
ASHLAND        PTSUNNY   78  65  63 N12       30.04F HX  80
HAYWARD        CLOUDY    78  55  44 VRB5      30.05F
SIREN          MOSUNNY   79  55  44 SE8       30.03F
CUMBERLAND     MOSUNNY   77  55  47 SE6       30.05S
RICE LAKE      MOSUNNY   78  58  51 SE8       30.05F
CHETEK         MOSUNNY   77  60  55 MISG      30.04F
LADYSMITH      MOSUNNY   78  57  47 CALM      30.07S
EAU CLAIRE     NOT AVBL
MENOMONIE      PTSUNNY   83  59  44 E6        30.03S HX  83
NEW RICHMOND   MOSUNNY   79  60  51 E8        30.02F HX  80
OSCEOLA        MOSUNNY   78  60  53 E8        30.04F HX  80
$$

WIZ003>005-009-010-017-018-302100-
NORTH CENTRAL WISCONSIN

CITY           SKY/WX    TMP DP  RH WIND       PRES   REMARKS
MANITOWISH WTR MOSUNNY   76  55  47 S6        30.07F
ARBOR VITAE    PTSUNNY   76  56  49 NE5       30.08S
WOODRUFF       PTSUNNY   76  56  49 NE5       30.08S
RHINELANDER    MOSUNNY   76  52  43 SE3       30.09S
EAGLE RIVER    SUNNY     76  45  33 CALM      30.08S
LAND O LAKES   MOSUNNY   78  50  37 SE6       30.09F
PHILLIPS       SUNNY     77  56  49 SE5       30.06S
TOMAHAWK       CLOUDY    73  58  60 CALM      30.08S
MEDFORD        PTSUNNY   74  58  58 SE5       30.07S
MERRILL        CLOUDY    74  60  59 E6        30.07S
$$

WIZ029-030-035-036-043>047-302100-
CENTRAL WISCONSIN

CITY           SKY/WX    TMP DP  RH WIND       PRES   REMARKS
WAUSAU         CLOUDY    76  57  51 SE10      30.05S
MOSINEE        PTSUNNY   77  57  50 SE7       30.07S
MARSHFIELD     SUNNY     78  60  53 SE10      30.05S
STEVENS POINT  MOSUNNY   75  55  49 E8        30.06S
WAUPACA        MOSUNNY   80  57  44 NE6       30.06S HX  80
WAUTOMA        MOSUNNY   77  59  53 E8        30.05S
WISC RAPIDS    SUNNY     75  58  55 SE8       30.06S
CAMP DOUGLAS   NOT AVBL
$$

WIZ011>013-019>022-031-037>040-048>050-302100-
NORTHEAST WISCONSIN

CITY           SKY/WX    TMP DP  RH WIND       PRES   REMARKS
ANTIGO         CLOUDY    73  57  57 SE6       30.09S
SHAWANO        SUNNY     79  53  41 E9        30.07S
OCONTO         SUNNY     75  52  44 NE10      30.06S
STURGEON BAY   SUNNY     76  55  48 E8        30.07S
GREEN BAY      SUNNY     76  57  51 N13G22    30.05S
MANITOWOC      NOT AVBL
APPLETON       PTSUNNY   77  50  38 E8        30.04S
CLINTONVILLE   MOSUNNY   77  52  41 E10       30.06S
OSHKOSH        SUNNY     77  56  48 E10       30.04S
$$

WIZ032>034-041-042-053>061-302100-
SOUTHWEST WISCONSIN

CITY           SKY/WX    TMP DP  RH WIND       PRES   REMARKS
LA CROSSE      CLOUDY    78  62  57 E3        30.01F HX  80
SPARTA         CLOUDY    78  61  55 SE7       30.03F HX  80
VIROQUA        PTSUNNY   80  62  55 SE6       30.04F HX  81
BOSCOBEL       MOSUNNY   81  62  52 VRB7      30.01F HX  82
PRAIRIE DU CHI PTSUNNY   78  63  59 E6        30.00F HX  80
PLATTEVILLE    MOSUNNY   78  63  59 NE7       30.02S HX  80
$$

WIZ056-057-062-063-064-067-068-302100-
SOUTH CENTRAL WISCONSIN

CITY           SKY/WX    TMP DP  RH WIND       PRES   REMARKS
REEDSBURG      MOSUNNY   78  62  58 E7        30.03F
BARABOO/DELLS  PTSUNNY   78  60  53 E6        30.04F HX  80
LONE ROCK      NOT AVBL
MINERAL POINT  MOSUNNY   79  63  57 NE8       30.03S HX  80
MADISON        CLOUDY    79  61  53 NE7       30.01F HX  80
MIDDLETON      CLOUDY    79  61  54 E8        30.03F HX  80
WATERTOWN      MOSUNNY   79  60  51 NE9       30.02F HX  80
MONROE         PTSUNNY   75  63  64 NE8       30.02S
JANESVILLE     MOSUNNY   81  59  47 E12       30.01  HX  81
$$

WIZ051-052-058>065-066-070>072-302100-
SOUTHEAST WISCONSIN

CITY           SKY/WX    TMP DP  RH WIND       PRES   REMARKS
MILWAUKEE      PTSUNNY   75  62  64 NE10      30.02F
WAUKESHA       MOSUNNY   73  57  56 E13       30.03F
MILWAUKEE/TIMM SUNNY     73  55  53 NE9       30.03F
RACINE         PTSUNNY   74  63  68 N12       30.03S
BURLINGTON     MOSUNNY   77  59  54 E10       30.01F
KENOSHA        MOSUNNY   76  62  62 NE10      30.02S
FOND DU LAC    SUNNY     79  57  46 N13       30.04S HX  80
SHEBOYGAN      SUNNY     73  58  59 NE12      30.05R
WEST BEND      SUNNY     77  54  44 SE6       30.04S
JUNEAU         SUNNY     76  60  56 N10       30.04F
$$

LSZ147-162-302100-
LAKE SUPERIOR

STATION/POSITION TIME  TEMP    WIND        PRES    WAVE
                       AIR SEA DIR/SP/G            HT/PER
                 (UTC) (F)     (DEG/KT/KT) (MB)    (FT/S)
W MID LAKE BUOY  1850   64 65   90/  4/  6 1017.8F   0
DEVILS ISLAND    1900   66      70/  4/  5 1018.0F
PORT WING        1900   64      30/ 11/ 13 1017.6F
SAXON HARBOR     1900   71      50/ 10/ 12 1017.3
$$

LMZ867-665-643>646-302100-
LAKE MICHIGAN

STATION/POSITION TIME  TEMP    WIND        PRES    WAVE
                       AIR SEA DIR/SP/G            HT/PER
                 (UTC) (F)     (DEG/KT/KT) (MB)    (FT/S)
CHAMBERS ISLAND  1900   72      30/ 10/ 14 1017.9F
S GREEN BAY BUOY 1800   72 71   60/ 14/ 16 1017.7F
N MID LAKE BUOY  1850   70 70   20/ 10/ 12 1017.7F   1/ 3
NORTHPORT PIER   1900   71      70/  9/ 11 1018.3F
SISTER BAY       1921   81     110/ 10/ 18   N/A
ALGOMA LAKESHORE 1913           50/ 16/ 18   N/A
KEWAUNEE LAKESHO 1900   72      30/  7/ 11 1017.3F
SHEBOYGAN LAKESH 1900   65      20/  8/  8 1017.5F
PORT WASHINGTON  1940   72      50/  8/ 10 1017.6S
ATWATER BUOY     1900   67 65   20/  8/ 10 1018.6F
MILWAUKEE LAKESH 1910   68      30/ 10/ 11   N/A
S MID LAKE BUOY  1850   69 73   60/  4/  6 1015.8F   1/ 5
KENOSHA   LAKESH 1900   69      20/ 11/ 12 1015.9F
$$

TC  - TEMPERATURE IN CELSIUS
VSB - VISIBILITY IN STATUTE MILES
WCI - WIND CHILL INDEX
HX  - HEAT INDEX




USA.gov is the U.S. government's official web portal to all federal, state and local government web resources and services.